Weather in Khotan

China     37°06′43″N   79°55′19″E
temp.,
°C
wind,
m/s
gust,
m/s
humid.,
%
clouds,
%
prec.,
mm/h
press.,
hPa
HPBL,
m
26 january, tue
tue2623:00−5wsw124928 0.0 102621
02:00−6wsw124835 0.0 102721
05:00−6w225273 0.0 102721
08:00−7w225248 0.0 102921
11:00−4wsw12380 0.0 103032
14:00+1nnw11300 0.0 1027530
17:00+3ene122827 0.0 1025957
20:00−2ese233718 0.0 102732
27 january, wed
wed2723:00−4ese114387 0.0 103023
02:00−6ene015081 0.0 103121
05:00−7wsw115475 0.0 103221
08:00−8w225544 0.0 103421
11:00−4wsw12380 0.0 103538
14:000nnw11320 0.0 1031645
17:00+1e12300 0.0 10291091
20:00−3e12400 0.0 103026
28 january, thu
thu2823:00−6sw11520 0.0 103231
02:00−7ssw11540 0.0 103228
05:00−8ssw11580 0.0 103221
08:00−8sse11590 0.0 103221
11:00−4sse11410 0.0 103325
14:00+1e11320 0.0 1029566
17:00+2ese21300 0.0 10261009
20:00−2se234014 0.0 102729
29 january, fri
fri2923:00−5se124671 0.0 102922
02:00−6sse114785 0.0 103021
05:00−6ssw0149100 0.0 103021
08:00−7ssw0153100 0.0 103121
11:00−3se1136100 0.0 103227
14:00+1ene1131100 0.0 1029507
17:00+2e2231100 0.0 1028893
20:00−2se234171 0.0 103029
30 january, sat
sat3023:00−5se224716 0.0 103323
02:00−7ssw11558 0.0 103421
05:00−8sw11560 0.0 103521
08:00−9ssw11620 0.0 103521
11:00−4s11390 0.0 103625
14:00+1e22320 0.0 1033520
17:00+3ese33310 0.0 1030682
20:00−2e23390 0.0 103141